Wetbulb
63.96 64.19 64.09 63.78 63.25 63.29 63.15 62.88 62.95 63.13 63.28 63.27 63.37 62.39 62.30 62.94 61.86 59.95 56.56 61.70 65.39 70.31 67.36 60.31 60.67 59.33 60.26 59.02 58.43 56.30 52.44 49.25 48.99 49.78 50.87 54.44 53.31 55.55 56.61 55.52 55.90 56.17 56.22 58.35 59.73
63.89 63.86 63.72 62.97 63.08 62.92 62.87 62.94 62.59 62.97 63.22 63.04 62.75 61.46 62.08 62.36 59.42 58.04 65.47 69.32 69.93 69.79 60.88 59.20 57.45 57.99 57.40 56.29 57.70 55.29 52.31 49.20 52.48 52.65 52.66 54.13 53.98 54.45 54.41 54.41 54.31 55.64 57.90 58.76 59.44
63.61 63.46 62.89 62.57 62.36 62.48 62.52 62.52 62.43 62.96 63.22 62.39 61.45 60.51 61.86 61.94 56.00 56.67 68.37 70.08 69.84 67.76 61.45 59.64 58.16 57.24 55.15 56.11 54.79 54.05 51.33 52.28 52.90 54.69 54.39 53.50 53.59 55.04 53.67 52.34 53.48 53.12 55.27 56.73 57.37
63.05 62.65 62.04 61.56 61.81 62.23 62.15 62.24 62.21 62.79 62.02 60.66 59.95 61.63 61.74 61.09 50.04 58.84 66.39 66.85 67.84 61.65 58.78 57.55 56.71 54.59 53.37 52.15 53.72 51.52 52.44 52.83 53.47 53.71 53.18 52.57 54.17 52.76 53.53 52.07 53.60 54.35 56.52 57.26 56.66
62.38 61.82 61.37 61.04 61.37 61.69 61.89 62.08 61.95 62.15 60.45 60.13 61.17 62.05 60.83 55.92 53.80 58.80 64.23 64.13 60.43 59.97 58.14 55.76 54.72 54.03 51.48 52.04 52.42 51.44 51.85 52.72 53.50 52.86 52.71 53.02 52.00 52.23 51.53 52.59 53.52 56.53 57.49 57.28 57.48
61.54 61.15 60.70 60.50 60.81 61.15 61.48 61.77 61.52 60.78 59.72 60.79 61.63 61.25 58.21 50.96 57.89 57.92 56.65 59.16 59.12 58.90 58.20 57.59 54.68 54.64 52.52 51.38 51.43 51.96 51.75 51.96 52.57 52.30 52.29 51.43 51.63 52.57 51.92 53.10 52.66 55.09 55.13 55.32 54.77
60.33 59.97 59.79 60.03 60.43 60.73 61.11 61.10 59.86 59.16 59.14 60.50 61.55 58.44 54.96 51.56 57.82 57.62 57.07 56.65 57.62 58.90 57.21 58.43 57.27 54.14 53.47 50.71 52.99 51.98 49.92 51.51 52.02 52.06 49.90 51.79 49.66 50.38 52.03 52.47 51.24 53.04 52.90 51.09 50.44
59.55 59.16 59.25 59.74 60.22 60.43 60.50 59.95 59.40 58.24 58.83 59.51 59.93 57.79 51.49 56.85 58.45 56.37 57.11 56.49 57.91 58.84 58.82 59.09 57.74 55.84 53.67 54.08 51.88 49.65 50.21 45.99 50.55 51.14 50.20 50.27 45.66 51.12 52.02 50.01 49.69 51.57 50.00 48.68 48.35
59.32 58.94 58.81 59.25 60.07 59.72 59.53 59.10 59.22 59.76 59.40 59.26 56.98 56.05 50.13 59.57 54.28 55.75 55.74 53.89 55.44 58.02 57.74 58.41 57.59 52.43 51.53 48.32 47.80 47.71 43.53 44.28 45.84 49.76 47.47 46.16 44.15 49.04 50.86 49.18 49.28 49.45 47.73 47.73 48.10
58.71 58.92 58.73 59.18 59.70 58.53 57.50 58.97 58.46 59.10 57.96 55.35 55.62 52.93 53.19 50.48 53.54 53.71 55.73 55.08 53.62 54.20 53.08 52.82 51.63 48.81 48.23 46.42 40.74 41.39 41.77 42.94 42.85 46.23 45.14 43.61 44.25 47.16 47.76 48.11 46.26 46.11 46.81 47.15 47.33
58.74 58.57 58.46 59.14 58.76 57.76 58.46 58.79 55.90 53.64 53.59 49.74 49.38 50.18 51.29 54.28 54.70 52.88 53.44 53.26 53.24 51.10 46.59 48.40 46.62 42.78 43.66 44.56 44.24 43.41 41.66 40.74 43.37 44.80 42.27 42.05 42.41 44.26 44.58 45.47 44.49 44.74 45.07 45.45 45.99
58.45 58.33 58.50 58.81 57.83 56.08 57.47 52.58 49.84 52.09 48.84 51.65 50.94 51.51 52.19 53.01 49.54 50.75 53.96 50.00 49.15 45.54 47.32 46.81 42.48 44.08 44.56 43.40 42.07 41.42 39.99 40.27 41.96 43.12 41.37 41.27 40.41 43.11 41.75 41.48 42.76 43.48 44.27 44.79 45.74
57.58 58.04 58.52 58.00 56.64 56.18 52.89 49.98 54.34 51.86 50.23 49.21 50.76 49.74 50.02 51.63 46.96 47.59 49.97 48.78 46.19 44.72 44.10 43.43 42.28 44.19 42.57 41.36 39.98 39.68 37.83 37.64 37.38 40.83 41.98 39.60 38.93 38.96 39.47 41.09 42.03 43.22 44.01 44.80 44.76
57.65 57.81 58.20 56.85 55.31 54.04 50.66 52.97 54.85 52.40 47.48 44.91 47.21 49.12 49.67 49.66 45.76 49.97 49.91 47.62 46.25 42.62 42.83 42.50 43.46 41.67 41.16 38.73 39.86 37.72 40.04 39.25 38.20 36.49 33.65 38.75 32.44 39.02 39.57 39.58 41.04 42.65 43.58 43.98 44.79
57.34 57.18 56.91 55.82 53.41 50.73 51.17 54.04 53.67 51.90 40.47 45.20 46.81 52.24 49.79 46.60 45.95 47.25 49.95 48.40 42.49 42.34 43.61 39.49 40.30 39.79 38.85 38.32 40.07 38.11 40.47 38.67 37.89 35.96 35.11 35.37 32.95 38.00 39.28 38.42 39.62 41.48 42.78 43.86 44.84
56.70 56.32 55.42 54.97 54.20 51.47 53.08 53.76 52.25 45.44 37.87 42.91 46.25 44.11 45.04 45.02 44.13 46.42 45.80 47.71 45.17 42.23 43.17 39.72 43.41 41.37 39.98 40.92 39.99 41.03 38.53 38.75 36.40 36.04 31.44 32.76 31.34 33.95 36.57 36.30 38.65 40.73 41.31 42.56 43.89
55.75 55.02 54.58 53.01 49.39 52.73 53.79 52.81 46.40 42.29 43.86 41.29 41.30 42.77 41.82 40.41 41.05 41.79 40.45 39.67 37.74 36.55 36.08 38.63 38.61 41.07 41.68 38.48 40.31 38.96 35.86 30.40 31.04 31.50 30.42 33.46 30.54 33.72 36.95 38.15 38.60 38.76 39.52 41.99 43.30
54.99 53.53 53.07 52.05 52.52 51.42 51.93 47.75 42.73 39.46 40.18 42.88 41.28 40.69 38.75 39.40 38.95 39.66 38.64 37.57 39.83 38.40 36.34 33.14 33.13 37.62 40.36 37.58 34.82 35.33 33.87 28.69 20.34 24.84 26.85 32.66 27.37 33.08 37.83 39.12 39.87 39.73 40.13 41.44 41.47
53.12 55.12 54.00 52.40 51.42 51.65 48.63 44.28 39.46 39.67 40.56 40.05 40.48 38.84 37.68 38.59 38.35 37.51 37.05 36.16 37.45 38.66 33.13 32.52 32.12 38.45 39.08 39.50 38.20 34.58 31.67 34.86 28.22 30.13 25.39 29.43 32.76 36.91 37.18 36.89 37.44 37.91 38.92 39.49 40.35
54.44 52.77 51.23 51.43 51.26 51.99 48.66 37.99 39.11 41.11 41.28 40.96 37.26 38.13 35.89 35.98 36.22 36.20 34.93 37.00 36.33 38.88 39.78 35.02 28.45 35.25 37.66 39.17 37.84 34.81 36.11 28.09 30.14 19.02 18.37 26.34 27.79 28.78 32.30 33.64 35.60 36.26 37.42 38.84 40.32
52.49 49.09 51.28 50.94 52.47 49.66 41.91 39.07 39.96 42.17 42.11 40.26 37.72 36.43 35.96 34.28 35.29 34.65 34.28 35.67 37.62 37.20 38.63 36.20 31.62 32.63 35.30 33.56 31.41 32.09 30.96 30.82 30.49 28.09 20.75 18.96 24.78 34.77 33.15 34.32 34.43 36.49 38.04 38.79 39.88
49.87 46.60 50.25 50.64 46.63 44.11 41.03 40.70 41.86 40.55 42.45 40.71 40.46 38.35 36.11 34.92 33.56 33.90 33.64 34.94 37.71 36.73 32.66 35.90 32.09 27.23 30.53 35.39 35.16 33.59 30.96 30.48 24.59 22.42 26.16 24.01 23.45 36.14 35.29 36.19 36.95 37.13 38.05 39.45 40.52
46.91 45.58 49.50 49.25 43.26 40.29 39.65 37.66 39.21 39.38 37.81 38.68 36.82 38.01 38.20 34.75 30.88 33.99 34.94 37.74 38.02 36.05 33.14 34.69 30.37 24.37 28.83 30.32 33.08 29.74 31.25 31.17 30.09 28.48 22.71 19.41 23.08 35.52 36.27 36.54 37.81 36.81 38.01 39.02 40.17
46.42 46.10 44.46 44.52 41.19 41.82 39.02 36.79 35.07 38.48 37.17 37.72 36.06 37.22 34.78 32.80 34.84 31.79 32.96 36.16 36.29 35.54 36.92 36.99 31.18 27.22 22.22 25.48 29.13 25.30 27.03 28.85 27.31 21.86 22.94 23.14 24.94 31.11 33.61 34.28 35.66 36.45 37.48 38.48 39.87
44.00 38.75 37.55 39.20 37.93 38.10 38.53 36.47 33.60 32.75 37.22 37.48 34.42 34.41 32.73 28.85 30.06 29.90 32.36 33.02 34.67 35.91 35.48 33.30 25.14 27.95 27.59 28.13 28.07 26.84 26.61 27.33 24.94 26.32 21.31 25.00 25.25 30.28 33.30 33.85 35.18 36.86 37.35 37.64 38.25
44.59 40.93 39.35 36.20 34.53 34.97 33.70 33.12 33.26 33.89 34.32 32.78 33.38 33.39 33.39 30.52 30.99 28.53 30.76 31.37 29.96 33.26 31.86 32.92 25.06 26.94 23.72 28.01 27.49 25.05 27.62 28.20 28.24 28.33 28.15 28.30 27.77 33.92 35.75 36.81 35.58 36.45 36.75 36.49 37.46
42.80 41.36 42.69 32.93 34.38 36.23 34.37 34.25 33.96 35.70 34.66 35.84 35.18 33.83 31.54 32.42 34.98 35.83 35.97 35.09 33.85 30.73 29.46 27.87 26.28 23.98 20.36 26.89 26.36 22.74 25.31 26.46 27.27 29.57 28.60 23.98 28.34 32.57 33.14 33.99 34.86 35.77 36.67 36.84 37.63
MSLP
1018.32 1017.89 1017.46 1016.99 1016.47 1015.97 1015.58 1015.19 1014.80 1014.51 1014.29 1014.14 1013.98 1013.82 1013.65 1013.43 1013.15 1012.59 1012.56 1013.63 1013.22 1012.82 1012.39 1011.78 1011.24 1011.16 1010.96 1011.00 1011.24 1011.06 1009.89 1009.38 1009.69 1009.66 1009.88 1010.00 1009.73 1010.00 1010.06 1009.44 1009.47 1009.62 1009.55 1009.88 1010.06
1018.37 1017.89 1017.43 1016.92 1016.40 1015.90 1015.46 1015.07 1014.66 1014.33 1014.12 1014.02 1013.91 1013.79 1013.53 1013.28 1012.03 1012.54 1013.88 1013.48 1013.16 1012.79 1011.95 1011.45 1011.08 1010.92 1010.75 1011.07 1011.16 1010.69 1010.26 1010.52 1010.91 1010.81 1010.65 1010.59 1010.49 1010.39 1009.98 1009.83 1009.82 1009.97 1010.03 1010.28 1010.36
1018.38 1017.90 1017.42 1016.92 1016.38 1015.83 1015.33 1014.91 1014.51 1014.19 1013.93 1013.86 1013.81 1013.72 1013.49 1013.15 1012.13 1013.42 1013.72 1013.41 1013.09 1012.77 1012.36 1011.97 1011.56 1011.20 1011.00 1011.29 1011.47 1011.27 1010.92 1011.44 1011.48 1011.54 1011.51 1011.09 1010.73 1010.91 1010.68 1010.72 1011.33 1011.35 1011.11 1011.12 1010.99
1018.46 1017.97 1017.42 1016.84 1016.27 1015.77 1015.27 1014.75 1014.33 1014.03 1013.82 1013.75 1013.69 1013.58 1013.42 1012.86 1013.24 1013.80 1013.84 1013.46 1013.08 1012.44 1012.10 1011.76 1011.47 1011.27 1011.34 1011.37 1011.84 1011.46 1011.87 1011.92 1011.95 1012.20 1012.03 1011.64 1011.55 1011.23 1011.59 1012.41 1012.61 1012.73 1012.59 1012.30 1011.99
1018.53 1018.01 1017.49 1016.88 1016.22 1015.66 1015.14 1014.63 1014.21 1014.01 1013.86 1013.75 1013.65 1013.46 1013.27 1012.73 1013.94 1013.96 1013.88 1013.30 1012.81 1012.54 1012.25 1012.00 1011.69 1011.77 1011.62 1011.91 1011.98 1011.78 1012.13 1012.27 1012.29 1012.45 1012.31 1012.24 1011.86 1011.81 1012.38 1013.05 1013.40 1013.58 1013.52 1013.43 1013.38
1018.66 1018.12 1017.53 1016.88 1016.21 1015.62 1015.07 1014.61 1014.27 1014.09 1014.00 1013.90 1013.77 1013.56 1012.70 1013.27 1014.37 1014.12 1013.82 1013.31 1013.07 1012.76 1012.64 1012.39 1012.48 1012.49 1012.22 1012.34 1012.27 1012.64 1012.50 1012.39 1012.40 1012.35 1012.44 1012.21 1012.10 1012.17 1012.66 1013.05 1013.64 1013.90 1014.18 1014.41 1014.52
1018.76 1018.23 1017.59 1016.90 1016.22 1015.61 1015.05 1014.63 1014.40 1014.29 1014.16 1014.03 1013.92 1013.10 1012.93 1014.60 1014.61 1014.34 1013.96 1013.69 1013.56 1013.19 1012.87 1013.02 1012.98 1012.64 1012.73 1012.60 1013.06 1012.74 1012.18 1012.25 1012.40 1012.50 1012.82 1012.67 1011.98 1011.99 1012.69 1012.97 1013.48 1014.16 1014.61 1015.24 1015.57
1018.77 1018.19 1017.53 1016.84 1016.14 1015.50 1015.01 1014.65 1014.46 1014.36 1014.24 1014.08 1013.91 1013.06 1014.00 1014.90 1014.58 1014.32 1014.01 1013.62 1013.67 1013.57 1013.47 1013.50 1013.29 1013.12 1013.15 1013.34 1013.03 1012.61 1012.41 1012.00 1012.30 1012.73 1013.06 1012.63 1011.50 1011.95 1012.51 1013.04 1013.19 1014.10 1014.72 1015.34 1015.74
1018.80 1018.20 1017.66 1016.96 1016.22 1015.55 1014.94 1014.69 1014.52 1014.36 1014.28 1014.05 1013.69 1013.06 1014.49 1014.77 1014.69 1014.82 1014.65 1014.15 1013.86 1013.74 1013.74 1013.70 1013.53 1013.72 1013.42 1012.93 1012.66 1012.86 1012.58 1012.95 1012.85 1013.42 1013.65 1013.44 1012.26 1012.22 1013.07 1013.86 1014.17 1015.08 1015.60 1015.92 1016.19
1018.80 1018.27 1017.80 1017.12 1016.25 1015.47 1014.91 1014.75 1014.50 1014.28 1014.22 1014.04 1014.05 1013.79 1015.17 1015.66 1015.56 1015.34 1014.67 1014.50 1014.07 1013.78 1013.50 1013.65 1013.78 1013.76 1013.86 1013.37 1013.61 1013.97 1013.70 1013.63 1013.69 1013.83 1014.53 1013.97 1013.33 1013.29 1014.56 1015.22 1015.69 1016.19 1016.44 1016.58 1016.76
1018.85 1018.37 1017.93 1017.31 1016.49 1015.62 1014.69 1014.37 1014.84 1014.80 1015.59 1016.36 1016.43 1015.99 1016.13 1016.12 1015.85 1015.13 1015.12 1014.60 1014.17 1013.88 1013.91 1014.52 1014.21 1014.99 1015.65 1015.98 1016.00 1015.77 1015.38 1014.89 1014.71 1015.17 1015.31 1014.21 1013.82 1013.82 1015.25 1015.79 1016.08 1016.33 1016.41 1016.53 1016.75
1019.08 1018.50 1017.92 1017.43 1016.89 1016.09 1015.43 1016.30 1018.06 1018.44 1017.65 1017.29 1017.02 1016.75 1016.84 1016.74 1015.82 1015.70 1015.35 1014.87 1014.82 1014.75 1014.76 1014.97 1015.76 1016.96 1017.06 1017.10 1016.97 1016.66 1016.34 1015.87 1015.87 1015.94 1016.04 1014.45 1014.03 1014.36 1016.16 1016.94 1017.30 1017.46 1017.44 1017.28 1016.96
1019.17 1018.52 1017.90 1017.42 1017.04 1016.78 1017.42 1018.79 1019.05 1018.77 1017.38 1017.59 1017.39 1017.14 1017.33 1016.89 1017.19 1017.13 1016.89 1016.24 1015.98 1015.83 1016.12 1016.09 1017.75 1017.95 1017.90 1017.72 1017.61 1017.67 1017.65 1017.45 1017.09 1016.39 1015.49 1014.92 1013.16 1014.89 1016.65 1017.40 1018.16 1018.37 1018.20 1017.96 1017.89
1019.19 1018.63 1017.97 1017.24 1017.27 1017.93 1018.39 1019.22 1019.10 1018.81 1017.42 1018.22 1017.51 1017.73 1017.62 1017.53 1017.93 1018.49 1018.40 1017.95 1016.93 1017.10 1017.29 1017.81 1018.76 1018.71 1018.47 1018.73 1018.79 1018.07 1018.88 1018.40 1017.56 1016.79 1015.26 1015.97 1014.05 1014.27 1015.83 1016.84 1017.44 1017.57 1017.70 1017.80 1017.76
1019.38 1018.89 1018.38 1017.15 1017.74 1018.50 1019.45 1019.34 1019.08 1018.68 1017.48 1019.20 1018.38 1018.52 1018.45 1018.36 1019.29 1018.96 1019.58 1018.21 1018.58 1018.65 1018.56 1019.50 1019.64 1019.65 1019.55 1020.02 1020.02 1019.41 1019.42 1018.55 1017.67 1016.97 1016.37 1015.86 1015.99 1014.22 1015.94 1016.70 1016.97 1017.93 1018.11 1018.00 1018.14
1019.59 1019.11 1018.66 1018.26 1018.33 1019.72 1019.56 1019.29 1018.75 1018.11 1018.64 1019.25 1019.20 1019.25 1018.95 1019.74 1020.02 1019.99 1020.05 1019.86 1020.00 1019.40 1019.47 1020.30 1020.63 1020.78 1020.85 1020.74 1020.75 1020.42 1019.41 1017.62 1017.79 1017.09 1016.14 1016.26 1016.81 1014.13 1015.53 1017.45 1017.80 1018.03 1018.22 1018.14 1018.00
1019.85 1019.51 1019.01 1019.12 1019.54 1019.57 1019.50 1018.79 1017.85 1017.91 1020.24 1020.26 1020.39 1020.60 1020.68 1021.13 1021.28 1021.46 1021.70 1021.79 1021.76 1020.70 1020.41 1020.53 1020.74 1021.28 1021.58 1020.89 1020.82 1020.73 1019.76 1018.01 1016.67 1016.41 1015.94 1017.26 1017.07 1015.24 1016.81 1018.07 1018.64 1018.60 1018.44 1018.22 1017.91
1020.00 1019.61 1019.63 1019.67 1019.70 1019.68 1019.06 1017.94 1018.18 1020.55 1020.90 1021.53 1021.56 1021.64 1021.76 1022.65 1022.75 1022.81 1022.87 1023.25 1023.97 1023.60 1022.61 1022.39 1021.65 1022.50 1022.79 1022.50 1022.13 1021.65 1021.81 1021.03 1019.92 1018.07 1017.23 1017.82 1016.40 1016.10 1017.94 1018.35 1018.62 1018.45 1018.62 1018.12 1017.75
1019.90 1019.50 1019.40 1019.39 1019.60 1019.34 1018.46 1018.29 1021.04 1021.82 1022.58 1022.49 1022.37 1022.17 1022.90 1023.38 1023.51 1023.53 1024.23 1024.93 1025.70 1025.57 1025.21 1024.40 1023.37 1024.04 1024.11 1023.68 1023.29 1022.36 1022.55 1023.48 1022.59 1021.11 1019.99 1017.81 1017.16 1016.92 1017.97 1018.16 1018.40 1018.55 1018.72 1018.22 1017.71
1019.75 1019.46 1019.44 1019.62 1019.45 1018.61 1018.27 1021.21 1022.81 1023.60 1023.76 1023.54 1023.19 1023.66 1023.53 1024.22 1024.20 1024.41 1025.12 1026.58 1026.55 1026.84 1026.53 1026.12 1025.12 1024.78 1024.71 1024.75 1024.38 1023.98 1024.43 1023.88 1023.18 1021.98 1020.04 1018.21 1018.11 1017.32 1018.34 1018.62 1018.67 1018.58 1018.63 1018.25 1017.74
1019.98 1019.20 1019.55 1019.48 1018.94 1018.75 1020.41 1022.83 1024.00 1024.67 1024.63 1024.51 1024.45 1024.54 1024.98 1025.21 1025.42 1025.74 1026.81 1027.71 1027.74 1027.60 1027.57 1027.22 1026.72 1024.94 1025.19 1024.20 1024.66 1024.44 1024.43 1024.74 1024.98 1023.98 1022.13 1020.18 1018.82 1018.87 1019.30 1019.33 1019.30 1018.79 1018.60 1018.34 1017.73
1020.26 1019.82 1020.30 1019.60 1019.50 1021.62 1023.07 1024.51 1025.27 1025.46 1025.46 1025.52 1025.68 1026.07 1026.20 1026.54 1026.46 1026.62 1027.34 1028.09 1028.62 1028.52 1028.05 1028.18 1027.42 1025.66 1024.58 1025.23 1026.23 1025.70 1025.75 1025.61 1025.45 1024.62 1023.61 1022.35 1020.01 1020.20 1019.99 1019.72 1019.48 1018.97 1018.60 1018.20 1017.86
1020.98 1021.28 1020.69 1020.33 1021.47 1023.23 1024.94 1025.73 1026.36 1026.32 1026.52 1026.36 1026.83 1027.15 1027.37 1027.49 1027.76 1027.97 1028.18 1028.80 1028.99 1028.70 1028.28 1028.14 1027.58 1026.33 1023.91 1026.09 1026.46 1025.99 1026.23 1026.67 1026.09 1026.11 1024.17 1023.04 1020.62 1020.52 1020.29 1019.87 1019.37 1018.90 1018.45 1018.03 1017.70
1021.90 1022.21 1022.38 1022.79 1024.45 1024.00 1025.05 1026.26 1026.91 1027.42 1027.50 1027.63 1027.77 1027.99 1028.16 1028.43 1028.59 1028.67 1028.66 1029.06 1029.48 1029.26 1029.08 1028.78 1028.27 1027.74 1026.81 1026.86 1027.35 1027.00 1026.51 1026.73 1026.95 1025.96 1024.86 1023.15 1022.08 1021.09 1020.59 1020.11 1019.38 1018.88 1018.55 1018.08 1017.69
1023.30 1024.93 1025.86 1025.73 1026.00 1025.97 1026.10 1027.19 1027.31 1027.90 1028.33 1028.43 1028.75 1028.62 1028.74 1029.14 1029.07 1029.21 1029.49 1029.47 1029.54 1029.90 1029.72 1029.45 1028.78 1028.35 1028.04 1028.12 1027.78 1027.12 1026.72 1026.22 1026.13 1025.68 1025.37 1023.70 1022.91 1021.82 1021.07 1020.53 1019.94 1019.26 1018.48 1017.98 1017.41
1024.39 1025.34 1026.71 1027.31 1027.51 1027.06 1027.18 1027.74 1027.82 1028.57 1028.76 1028.94 1028.98 1029.54 1029.65 1029.78 1030.03 1030.02 1030.34 1030.22 1030.14 1030.15 1030.23 1030.26 1029.38 1028.76 1028.29 1027.61 1027.56 1026.57 1026.02 1025.52 1025.20 1024.78 1024.32 1023.75 1022.65 1022.37 1021.93 1020.96 1020.14 1019.22 1018.58 1017.97 1017.31
1025.33 1025.89 1025.49 1028.13 1028.02 1027.73 1027.78 1027.81 1028.19 1028.52 1029.66 1029.61 1029.77 1030.13 1030.38 1030.72 1030.83 1030.94 1031.04 1030.94 1031.22 1031.28 1030.98 1031.13 1030.34 1029.79 1027.98 1027.50 1026.79 1025.40 1026.21 1026.26 1025.69 1025.38 1024.89 1024.43 1024.24 1023.84 1022.25 1021.30 1020.36 1019.41 1018.56 1017.82 1017.36
Wind_Speed
14 15 17 17 18 17 16 17 16 14 11 9 8 7 8 8 6 5 14 8 8 12 9 3 1 2 1 4 3 1 2 2 3 1 4 5 4 3 3 5 4 5 6 7 8
15 16 17 18 18 17 16 16 16 13 10 6 5 6 8 8 15 19 8 9 10 10 5 6 6 4 4 3 2 3 2 4 4 4 5 6 6 6 4 7 5 9 8 7 10
16 17 17 18 18 17 17 16 15 12 7 3 3 3 6 5 3 9 13 13 11 7 3 3 3 3 4 2 5 3 4 3 4 4 7 7 6 5 7 4 11 13 15 14 11
17 17 18 19 18 17 17 15 14 11 5 2 2 2 2 4 2 7 14 13 9 5 1 4 2 1 2 3 3 1 3 3 2 4 7 8 7 2 8 9 8 10 11 13 13
18 18 18 19 19 19 18 15 11 8 4 3 2 2 4 9 7 9 13 8 4 4 9 4 8 2 3 2 1 1 4 5 6 4 4 4 2 2 10 8 8 9 11 12 11
17 17 18 19 20 19 17 14 8 5 4 5 5 4 1 9 6 9 10 3 7 5 8 8 5 3 5 3 4 5 5 5 4 5 5 5 2 5 7 5 8 8 10 10 11
16 17 18 19 19 19 17 10 8 5 4 6 6 1 19 9 5 9 7 5 5 5 5 6 3 2 1 3 4 2 1 5 9 8 6 6 5 5 6 8 8 6 8 10 10
17 18 19 19 19 19 16 7 7 4 5 5 4 1 8 3 5 10 11 2 5 4 3 5 3 5 5 2 1 2 1 6 7 9 4 9 9 8 8 12 11 2 5 7 10
18 19 20 21 19 18 13 5 6 1 5 2 0 2 6 6 6 10 7 7 5 3 8 4 3 5 4 4 4 5 6 8 7 5 8 7 13 13 11 15 9 5 6 7 8
18 18 18 18 18 17 6 3 8 2 4 1 4 6 5 6 6 8 5 6 4 2 1 6 4 4 10 10 6 10 8 8 12 9 13 16 14 11 11 8 5 4 6 7 8
18 17 16 15 15 17 4 2 3 6 14 8 4 6 3 6 3 15 7 5 2 5 7 6 7 10 10 9 6 8 11 16 14 11 16 14 19 18 2 3 4 3 4 4 5
17 17 16 14 8 17 6 7 4 4 13 6 4 4 2 4 4 19 16 4 8 9 9 3 8 8 4 6 8 10 12 10 7 8 15 17 21 5 0 1 3 4 4 5 5
18 17 15 13 2 5 13 8 7 3 4 6 4 6 5 7 8 14 15 4 7 10 9 7 6 5 7 7 9 4 7 10 14 19 21 14 14 7 4 3 2 1 4 5 7
18 17 16 11 1 3 6 12 2 3 4 8 7 8 7 3 5 9 13 5 4 7 4 6 6 8 7 6 7 8 8 13 16 18 11 10 10 4 3 3 4 5 7 7 7
17 16 14 15 3 5 8 6 3 4 3 6 4 5 7 8 8 13 9 6 7 8 6 7 8 8 6 6 7 5 14 15 20 16 9 5 7 5 4 3 8 11 10 9 10
16 15 11 3 4 4 7 3 4 4 4 2 5 8 3 10 5 9 10 9 2 1 7 4 2 4 6 5 3 12 12 21 4 7 7 8 4 7 6 8 9 11 12 12 14
14 9 6 3 5 9 2 4 4 4 0 4 5 6 5 9 8 10 8 15 9 5 7 3 2 3 8 8 2 13 12 8 6 5 10 4 11 14 9 6 6 11 17 15 15
11 4 4 5 6 4 3 5 2 3 4 2 3 2 5 10 6 8 4 7 14 9 5 8 1 6 8 5 7 6 8 4 8 10 18 17 10 5 7 3 5 16 17 19 21
5 1 2 10 6 2 5 4 5 3 3 5 0 2 3 3 4 3 7 5 9 13 10 10 1 5 4 6 5 5 6 7 12 14 11 8 11 10 4 15 21 15 20 22 21
1 1 3 15 6 3 3 6 3 3 4 2 3 3 4 7 3 6 3 4 3 8 5 4 9 3 6 5 3 3 5 5 5 7 15 12 21 12 15 23 20 20 22 21 19
1 2 6 13 4 5 5 5 5 5 0 5 1 2 4 3 3 4 4 3 4 6 4 5 3 1 6 4 12 7 5 5 6 8 12 15 8 18 23 18 18 23 20 18 18
2 1 8 8 4 4 4 3 1 3 6 4 4 4 3 3 1 2 3 4 4 5 5 5 6 8 12 9 4 1 3 5 7 15 14 15 18 15 14 20 20 18 17 16 15
3 3 4 7 5 4 4 4 5 2 5 3 3 4 2 3 1 2 1 5 2 4 5 5 2 9 3 7 5 4 11 15 15 10 19 17 15 18 23 21 20 18 17 14 14
1 1 5 6 4 6 7 4 5 4 4 5 4 2 2 2 3 2 2 2 3 5 5 5 6 10 10 17 16 18 22 17 16 11 17 20 22 21 19 18 18 17 17 16 14
5 4 2 3 5 6 4 2 5 3 3 3 4 5 3 2 0 1 1 3 2 5 2 4 8 11 13 18 20 21 22 21 15 18 15 20 21 19 17 17 16 17 17 17 16
2 4 3 3 1 3 3 2 4 5 1 3 4 4 3 1 3 4 3 2 3 0 5 6 5 13 15 12 11 18 19 12 12 14 14 16 18 13 16 16 17 19 18 18 18
2 2 1 1 2 1 2 5 5 8 5 6 5 2 1 1 3 6 7 8 10 10 8 5 4 7 8 14 18 16 4 12 11 13 13 11 14 19 19 19 20 22 19 15 17
Wind_Direction
358 353 350 346 342 338 336 335 336 336 333 332 335 344 342 337 268 116 52 350 318 318 306 220 32 55 125 80 37 296 258 53 55 346 72 32 2 44 333 313 27 26 349 26 10
356 352 348 344 339 334 332 333 334 335 331 332 342 348 338 334 85 58 359 324 320 334 346 11 21 14 80 48 31 343 337 50 26 22 10 358 349 338 305 0 10 352 9 347 345
355 351 346 339 335 332 332 334 333 336 341 347 3 350 329 286 92 25 355 335 328 312 337 354 341 2 63 22 19 20 38 48 64 27 348 331 325 346 339 30 8 340 340 353 354
353 348 343 340 334 333 336 334 337 341 1 20 32 355 317 248 82 356 338 327 324 335 296 21 5 62 69 65 16 213 64 15 24 3 322 324 327 21 56 28 18 19 12 18 28
351 347 342 338 334 336 338 336 342 351 5 19 14 322 233 76 54 338 326 330 354 6 36 36 47 36 65 36 31 38 24 336 331 333 348 314 349 91 63 53 38 41 40 39 38
349 344 341 338 333 334 339 338 350 9 15 6 352 284 148 82 337 335 329 343 25 31 43 39 42 26 75 46 12 348 322 331 30 29 48 336 82 200 56 47 37 46 50 48 46
347 344 342 338 332 334 339 342 358 4 4 6 357 349 69 67 343 351 357 11 358 16 51 42 23 346 339 111 359 329 5 150 49 26 37 329 200 167 23 360 15 26 63 58 52
347 348 345 340 333 335 338 343 2 3 336 344 331 72 74 6 328 10 358 30 30 36 28 18 43 82 16 338 178 359 185 339 39 1 38 343 285 171 7 332 334 9 95 80 60
349 348 348 340 331 337 333 330 348 284 357 326 7 5 68 325 13 344 0 355 333 48 37 45 53 45 12 336 170 48 331 332 328 85 339 344 286 282 341 334 339 15 46 53 54
349 344 344 339 332 344 344 0 3 147 359 197 77 120 49 7 327 334 9 354 14 309 178 30 58 79 31 11 14 330 324 307 305 334 335 306 290 306 11 356 38 64 58 48 34
344 342 341 339 338 357 336 252 211 71 38 43 27 66 45 333 313 18 356 318 19 54 12 34 63 43 23 24 350 315 304 304 321 338 323 312 299 303 44 122 111 87 58 49 35
342 340 339 340 338 354 46 66 48 5 77 44 50 73 6 335 11 16 354 34 31 35 356 120 68 24 5 5 336 323 315 343 306 329 319 309 301 323 78 134 34 34 42 25 11
342 341 343 342 293 32 63 35 319 208 95 49 30 22 3 14 41 4 4 353 19 25 27 46 44 352 357 355 352 22 3 334 308 314 291 324 286 160 147 136 90 27 346 357 360
347 345 345 338 242 3 57 347 315 213 151 23 11 37 360 330 72 20 9 337 35 26 36 59 24 8 357 69 349 317 348 313 305 317 317 14 297 135 147 149 166 356 5 360 355
352 352 348 16 82 41 331 332 137 240 226 16 25 337 27 52 326 21 13 3 29 16 310 56 11 14 36 0 338 341 323 297 294 289 297 135 263 107 134 208 14 11 2 351 338
353 349 340 20 62 30 322 191 225 221 92 61 13 2 46 30 34 349 13 32 73 94 76 55 83 37 349 337 358 321 302 291 225 258 245 104 313 286 25 2 5 15 355 339 330
349 356 27 5 348 337 295 225 218 22 190 36 8 7 58 22 30 14 28 43 25 330 25 329 128 100 11 326 177 351 339 322 295 275 319 96 298 274 58 40 1 349 339 335 330
340 344 52 54 339 302 223 236 51 38 36 19 1 58 62 3 45 24 27 46 32 359 329 346 256 6 5 5 308 340 354 301 295 312 306 316 261 60 46 11 341 321 341 330 330
316 45 29 351 346 247 259 46 42 39 358 342 225 22 84 55 352 56 52 52 32 15 5 337 284 352 1 334 313 38 308 0 283 275 286 243 272 258 210 340 339 338 336 328 326
47 26 26 340 332 260 55 87 92 36 353 319 36 350 21 14 355 15 34 28 50 37 356 66 288 57 325 289 160 352 343 264 222 277 292 293 305 305 338 327 328 328 329 325 326
7 201 16 342 272 45 69 73 114 61 351 10 86 91 72 28 8 36 30 79 25 18 7 338 214 118 310 305 320 316 269 226 291 278 292 303 287 343 318 328 324 322 323 322 326
9 260 5 322 56 46 60 56 32 41 46 75 76 56 46 39 52 80 44 45 41 3 9 19 305 280 290 330 290 288 314 282 279 288 276 283 282 313 313 315 323 320 319 318 323
43 342 25 309 97 94 115 85 56 47 43 70 93 31 46 52 354 32 36 140 56 357 5 14 175 301 254 165 179 310 301 291 278 267 265 283 289 310 313 316 319 324 325 320 325
94 52 31 48 17 108 133 120 117 44 72 58 94 98 97 69 50 161 214 147 311 312 327 266 247 244 271 297 310 298 293 290 283 276 288 281 295 301 323 319 327 328 328 323 319
5 74 21 37 45 84 62 68 129 118 63 51 85 92 121 150 273 224 275 303 319 4 95 354 268 282 287 288 288 286 285 295 286 276 271 285 290 301 325 329 323 320 326 327 321
105 133 80 83 76 111 31 98 130 112 49 103 145 136 102 92 338 310 314 298 282 118 329 328 280 303 297 285 281 288 291 294 294 297 283 268 278 2 328 325 324 326 323 322 323
107 84 124 349 107 223 72 130 132 132 71 61 127 159 222 28 323 311 297 292 288 288 292 284 304 316 292 313 309 277 10 323 321 319 310 296 344 325 326 325 324 320 318 316 325